Flag for U.S.A. Weather past 2 weeks in Cape Coral, Florida, U.S.A.

Now
66 °F

Overcast.


Feels Like: 66 °F
Forecast: 62 / 79 °F
Wind: 10 mph from Northeast

Location: Page Field


UV Index: 7 (High)

Visibility: 10 mi


Pressure: 30.06 "Hg

Humidity: 75%

Dew point: 58 °F

Location of Cape CoralLocation

Historic Weather in Cape Coral

°F

Cape Coral temperature yesterday

Maximum temperature yesterday: 79 °F (at 4:53 PM)
Minimum temperature yesterday: 64 °F (at 3:53 AM)
Average temperature yesterday: 70 °F

Past Weeks' High & Low Weather Summary

 TemperatureHumidityPressure
High89 °F (Apr 7, 1:53 PM)100% (Apr 14, 6:53 AM)30.27 "Hg (Apr 14, 6:53 AM)
Low58 °F (Apr 10, 5:53 AM)31% (Apr 10, 1:53 PM)29.78 "Hg (Apr 8, 1:53 PM)
Average74 °F72%30.02 "Hg
* Reported Apr 6 12:53 AM — Apr 21 12:53 AM, Cape Coral, Weather by CustomWeather, © 2014

Note: Actual official high and low records may vary slightly from our data, if they occured in-between our weather recording intervals... More about our weather records

Advertising

Historic Weather Conditions — Data for Previous 24 hours

 ConditionsComfort  
Time TempWeatherWind HumidityBarometerVisibility
12:53 AM
Apr 21
66 °FOvercast.10 mph75%30.06 "Hg10 mi
11:53 PM
Apr 20
67 °FClear.8 mph76%30.06 "Hg10 mi
10:53 PM70 °FOvercast.5 mph66%30.05 "Hg10 mi
9:53 PM71 °FOvercast.5 mph76%30.04 "Hg10 mi
8:53 PM72 °FOvercast.8 mph73%30.03 "Hg10 mi
7:53 PM73 °FOvercast.9 mph66%30.01 "Hg10 mi
6:53 PM76 °FOvercast.8 mph54%30.01 "Hg10 mi
5:53 PM76 °FScattered clouds.5 mph52%30.01 "Hg10 mi
4:53 PM79 °FPartly sunny.9 mph47%30.01 "Hg10 mi
3:53 PM77 °FOvercast.6 mph52%30.01 "Hg10 mi
2:53 PM75 °FMostly cloudy.7 mph55%30.03 "Hg10 mi
1:53 PM74 °FOvercast.7 mph56%30.05 "Hg10 mi
12:53 PM74 °FOvercast.7 mph56%30.05 "Hg10 mi
11:53 AM72 °FOvercast.N/A57%30.06 "Hg10 mi
11:01 AM71 °FOvercast.6 mph59%30.06 "Hg10 mi
9:53 AM69 °FPartly sunny.6 mph68%30.05 "Hg10 mi
8:53 AM68 °FOvercast.8 mph70%30.04 "Hg10 mi
8:04 AM66 °FOvercast.3 mph78%30.02 "Hg10 mi
7:53 AM66 °FOvercast.6 mph78%30.02 "Hg10 mi
6:53 AM65 °FMostly cloudy.8 mph81%30.01 "Hg10 mi
5:53 AM64 °FPassing clouds.6 mph81%29.99 "Hg10 mi
4:53 AM64 °FOvercast.3 mph84%29.98 "Hg10 mi
3:53 AM64 °FOvercast.7 mph84%29.99 "Hg10 mi
2:53 AM66 °FOvercast.7 mph73%29.99 "Hg10 mi
Weather by CustomWeather, © 2014

See weather overview